Other Public Products
Issued by NWS Charleston, SC

Current Version | Previous Version | Text Only | Print | Product List | Glossary Off
Versions: 1 2 3 4 5 6 7 8 9 10 11 12 13 14 15 16 17 18 19 20 21 22 23 24 25 26 27 28 29 30 31 32 33 34 35 36 37 38 39 40 41 42 43 44 45 46 47 48 49 50

000
FPUS82 KCHS 261112
OPUCHS

TEST...KCHS/KSAV Gateway Observations...TEST
National Weather Service Charleston SC
700 AM EDT WED JUL 26 2017

NOTE: "fair" indicates few or no clouds below 12,000 feet with no
significant weather and/or obstructions to visibility.

SCZ050-WAZ558-NCZ071-TXZ119-213-PAZ071-DCZ001-FLZ074-172-MI076-
NYZ176-178-MAZ016-IL014-TNZ027-NJZ106-GAZ044-MD014-261200-

...Gateway Observations for Charleston International...

CITY           SKY/WX    TMP DP  RH WIND       PRES   REMARKS
Chas Airport   TSTM      75  69  81 NE12      30.08R
Seattle        PTCLDY    59  53  80 CALM      30.05R
Charlotte      MOCLDY    75  69  81 NE9       30.15R
Dallas DFW     CLEAR     81  72  74 S12       30.04R
Dallas Love    CLEAR     81  71  71 S9        30.05R
Philladelphia  CLOUDY    68  62  81 E8        30.23R
Wash National  PTCLDY    70  65  84 NE6       30.21R
Baltimore      MOCLDY    66  65  96 NW5       30.20R
Miami          PTCLDY    84  77  79 E8        30.07R HX  94
Detroit        CLOUDY    63  59  87 S3        30.17S
Newark         PTSUNNY   66  57  72 N8        30.23F
Laguardia      MOSUNNY   66  58  75 N5        30.23S
J F K          MOSUNNY   65  61  87 N5        30.24S
Boston Logan   SUNNY     63  56  78 VRB5      30.23R
Ft. Lauderdale PTCLDY    84  76  76 SE8       30.06R HX  93
Chicago O`Hare MOCLDY    66  59  78 S3        30.09F
Chicago Midway MOCLDY    69  60  73 S7        30.09F
Houston Bush   CLOUDY    78  74  87 S5        30.10R
Houston Hobby  CLOUDY    81  74  79 CALM      30.09R
Nashville      PTCLDY    75  73  93 CALM      30.12R
Atlanta        PTCLDY    75  71  87 NW5       30.12R

$$

GAZ044-118-TXZ119-213-NCZ071-DCZ001-MDZ014-506-PAZ021-071-NJZ106-
NYZ176-178-MAZ106-OHZ011-021-055-MIZ076-KYZ091-ILZ014-INZ047-
MNZ060-ONZ431-261200-

...Gateway Observations for Savannah International...

CITY           SKY/WX    TMP DP  RH WIND       PRES   REMARKS
Savannah Arpt  CLOUDY    75  73  93 NW5       30.09R
Atlanta        PTCLDY    75  71  87 NW5       30.12R
Charlotte      MOCLDY    75  69  81 NE9       30.15R
Dallas DFW     CLEAR     81  72  74 S12       30.04R
Houston Bush   CLOUDY    78  74  87 S5        30.10R
Wash National  PTCLDY    70  65  84 NE6       30.21R
Wash Dulles    PTCLDY    64  61  90 NW5       30.21S
Baltimore      MOCLDY    66  65  96 NW5       30.20R
Philadelphia   CLOUDY    68  62  81 E8        30.23R
Newark         PTSUNNY   66  57  72 N8        30.23F
Laguardia      MOSUNNY   66  58  75 N5        30.23S
J F K          MOSUNNY   65  61  87 N5        30.24S
Boston         SUNNY     63  56  78 VRB5      30.23R
Pittsburg      PTCLDY    58  58 100 CALM      30.20S
Akron          PTCLDY    59  54  83 SE5       30.19F
Cleveland      PTCLDY    59  55  87 CALM      30.19F
Cincinnati     PTCLDY    62  61  96 SE7       30.15S
Columbus       CLEAR     57  57 100 CALM      30.17F FOG
Detroit        CLOUDY    63  59  87 S3        30.17S
Chicago O`Hare MOCLDY    66  59  78 S3        30.09F
Minneapolis    CLOUDY    73  70  90 E7        29.96F
Indianapolis   PTCLDY    63  60  90 SE7       30.14R
Toronto Canada MOCLDY    61  55  82 W3        30.20S

$$




USA.gov is the U.S. government's official web portal to all federal, state and local government web resources and services.